Dewpoint
71 72 72 73 73 74 73 74 74 73 74 74 74 73 73 74 73 73 74 73 74 74 74 75 75 75 74 75 74 75 75 74 75 75 74 73 73 72 71 70 70 70 70 70 68 69 69 68 68 68 69 68 67 66 66 67 68 66 67 66 65 67 66 64 62 62 65 64 63 62 65 66 63 66 65 65 66 68 68 68 69 66 66 66 65
71 72 72 72 73 73 73 73 73 73 73 73 73 73 73 73 74 74 73 74 74 73 74 74 75 75 74 75 75 76 76 76 74 74 74 73 73 72 71 71 70 70 70 70 69 68 69 69 68 68 69 68 67 66 66 65 66 64 66 65 64 66 67 64 63 62 62 66 63 65 65 66 64 67 65 64 64 66 66 67 68 67 67 66 65
70 72 72 73 73 73 73 73 73 73 73 72 72 72 72 73 73 73 73 72 74 74 74 74 75 76 75 75 76 76 76 76 75 74 74 73 73 72 71 71 70 70 69 69 69 69 69 69 67 68 68 67 68 67 66 66 65 65 65 64 65 64 67 66 64 63 62 63 65 63 63 65 63 65 66 65 67 67 67 67 65 66 68 67 65
69 71 71 72 72 73 73 73 72 71 71 72 71 71 71 72 73 73 72 72 73 74 74 74 75 76 75 75 76 76 76 75 75 74 74 73 73 72 72 71 70 70 69 69 69 69 68 68 67 67 68 67 67 67 67 67 67 67 66 67 67 66 67 67 66 64 64 63 66 64 64 64 65 66 66 67 65 66 66 66 68 68 67 66 67
68 69 70 70 71 72 72 72 72 71 71 71 71 70 70 71 72 72 72 72 72 73 74 75 75 75 75 75 75 75 75 75 75 74 74 73 73 72 72 72 71 70 70 70 69 69 68 68 68 68 68 67 67 67 67 67 67 66 66 67 66 66 66 67 67 66 66 65 65 67 67 67 66 67 67 65 65 67 68 68 67 67 68 66 64
67 69 68 69 71 72 72 72 71 71 71 70 70 70 70 71 71 72 72 71 72 72 73 74 74 75 75 75 75 75 75 75 75 74 73 73 73 72 72 72 71 71 70 70 69 69 69 68 68 68 67 67 67 67 68 67 67 66 66 67 67 66 67 68 67 67 66 65 66 66 67 65 66 67 68 67 65 64 66 68 68 68 68 66 63
69 68 68 68 71 73 72 72 71 71 72 72 71 71 70 70 71 71 71 71 71 71 71 73 74 74 75 75 74 75 75 75 75 75 74 73 73 72 71 71 71 70 70 69 69 68 68 68 68 68 68 68 67 67 68 68 67 66 67 67 67 67 66 66 67 67 67 66 66 66 65 66 67 66 68 67 67 66 65 65 65 67 68 67 66
69 69 69 69 72 73 73 73 72 72 72 73 73 72 71 71 72 72 72 72 71 71 71 72 73 73 74 74 75 75 75 75 75 75 74 74 73 72 72 71 70 70 70 69 68 68 68 67 67 68 68 68 68 68 68 68 68 67 67 67 67 67 66 66 67 66 66 65 64 64 65 65 66 67 67 67 66 66 66 65 64 65 65 67 65
69 69 70 70 72 73 73 73 73 73 73 74 73 73 72 73 73 73 73 72 71 71 71 71 72 73 73 74 74 74 74 74 74 74 74 74 73 72 72 71 71 70 70 69 69 68 68 67 66 67 69 68 67 67 67 67 68 67 68 68 68 67 67 66 67 66 66 65 65 66 65 65 65 65 65 65 65 64 66 64 64 65 64 63 66
70 69 70 72 72 72 73 74 74 74 74 74 74 74 73 73 73 73 73 73 73 73 73 72 72 72 73 73 74 74 74 74 70 66 67 73 73 72 72 72 71 71 70 70 69 68 68 67 67 67 66 66 66 66 65 65 66 66 68 68 68 67 67 66 66 66 65 65 64 64 64 64 63 65 65 66 66 66 65 65 63 64 64 64 65
70 70 71 71 72 73 73 73 73 73 74 74 74 74 74 74 74 74 74 74 73 74 73 72 72 72 72 72 73 73 73 73 65 63 64 66 71 73 72 72 71 71 70 70 69 69 68 68 68 68 67 67 67 67 67 66 65 65 65 67 67 68 67 66 66 66 65 64 64 64 63 64 63 65 66 65 64 65 65 66 65 64 63 62 61
69 71 71 71 72 73 72 73 73 73 74 74 74 74 74 74 74 74 74 74 74 74 73 73 73 72 72 72 72 73 73 67 62 62 63 63 65 72 72 72 71 71 70 70 70 69 69 68 68 68 68 68 68 68 67 66 64 65 64 64 65 65 65 67 67 66 66 65 64 64 64 64 64 66 64 64 66 67 67 66 65 64 63 63 63
69 71 71 72 72 73 73 73 73 73 74 74 74 74 74 74 74 74 73 74 74 74 74 73 73 73 73 73 72 72 72 65 62 61 62 62 62 66 71 72 71 70 70 70 70 70 70 69 68 68 68 67 68 68 69 68 65 64 63 64 64 63 62 62 64 66 66 67 65 64 65 66 66 66 67 67 68 66 65 64 64 64 64 62 62
70 70 72 72 73 73 73 73 73 73 73 74 74 74 74 74 74 74 74 74 74 73 73 74 74 74 73 73 73 72 72 65 61 60 60 60 61 64 71 71 71 71 70 70 70 70 70 70 69 68 68 69 69 68 69 69 69 68 68 67 66 65 63 62 63 65 67 66 66 65 67 68 68 69 69 68 66 65 64 63 63 63 62 62 63
70 71 71 72 73 73 73 73 73 73 74 74 74 74 73 74 74 73 73 73 73 73 73 73 73 73 73 72 72 72 71 62 60 59 59 59 60 61 71 71 71 71 71 71 71 71 71 70 69 69 69 69 69 68 68 68 68 67 67 66 66 66 66 64 65 66 66 66 67 66 67 69 69 68 69 68 66 66 65 63 62 62 62 63 62
70 71 71 72 72 73 73 73 73 74 74 73 73 73 73 74 74 74 73 72 72 72 73 73 73 72 73 72 71 72 71 61 59 58 58 58 59 66 70 72 71 71 71 71 71 72 71 70 69 70 69 69 66 64 67 69 68 67 67 67 67 66 66 67 63 65 67 67 68 67 68 70 66 70 69 66 65 65 63 63 63 63 62 60 58
70 71 70 71 72 72 72 72 73 73 73 73 73 73 73 73 74 74 73 72 72 72 73 72 73 73 72 72 72 71 71 64 58 57 57 57 59 68 70 71 71 71 71 71 71 71 71 70 70 69 70 69 65 61 63 67 68 66 67 66 66 66 66 69 64 62 62 63 63 63 63 62 60 59 59 61 64 63 62 61 60 59 59 57 56
70 71 71 72 72 72 72 72 73 73 73 73 73 73 73 73 73 74 73 72 71 71 71 72 72 72 72 72 71 71 71 65 56 56 57 56 61 69 70 71 71 70 70 71 71 71 70 68 69 70 70 70 62 60 61 66 68 67 66 66 65 66 66 66 67 67 60 60 60 60 60 60 60 59 58 58 58 61 62 60 60 56 56 57 55
70 70 71 71 72 72 72 72 72 73 73 73 73 73 73 73 74 74 73 72 72 73 72 72 72 73 71 71 68 70 71 64 55 56 56 56 61 70 71 71 70 70 70 70 71 70 70 68 66 68 69 67 59 59 59 63 68 67 67 66 65 65 65 67 67 66 65 65 65 65 65 62 65 65 65 59 59 61 63 63 59 58 56 54 53
71 71 71 71 72 72 72 73 73 72 73 73 74 73 74 73 73 73 73 72 72 72 72 72 72 72 72 72 72 71 72 72 63 55 56 55 57 70 71 71 70 70 70 70 70 69 69 69 67 61 61 60 58 57 57 58 68 68 67 66 65 65 66 68 68 67 67 66 66 65 65 65 65 65 65 62 60 62 63 62 60 58 56 54 53
71 71 72 71 71 72 72 73 72 72 73 73 73 73 73 73 73 73 72 72 72 73 72 72 72 72 72 72 72 72 72 72 65 54 55 55 56 62 71 71 70 70 70 70 69 68 68 68 69 62 58 58 56 55 55 56 62 68 68 67 66 67 66 67 68 67 67 67 66 65 65 64 63 62 61 61 59 59 59 59 58 57 56 54 51
72 72 73 72 71 71 71 73 73 72 73 74 74 74 74 73 73 73 72 73 73 73 73 72 72 72 73 72 73 72 70 67 68 56 55 54 55 58 69 71 71 70 70 70 69 68 68 68 69 63 57 56 56 54 53 54 58 69 70 61 60 61 68 67 67 65 64 64 64 62 62 61 60 59 58 58 57 57 57 57 56 55 56 54 54
72 72 72 72 72 72 73 73 73 73 74 74 74 74 74 74 74 74 74 73 73 73 73 73 72 72 72 73 73 74 74 72 61 61 54 53 54 56 61 67 64 72 70 69 69 69 69 69 68 60 56 54 53 53 52 53 56 66 59 58 56 59 64 66 65 65 64 64 63 63 62 61 60 59 58 58 56 57 55 55 57 57 58 56 56
72 72 72 72 72 72 72 73 73 74 75 75 74 74 75 74 74 74 74 73 73 72 72 72 72 71 71 72 73 74 74 73 62 58 58 53 54 55 57 61 62 69 71 70 69 69 69 69 67 55 53 51 52 52 52 54 62 57 55 55 57 59 65 65 65 65 65 62 62 62 62 61 61 60 57 58 54 60 58 58 59 57 58 57 56
73 72 71 71 72 72 73 73 74 74 74 75 74 74 74 75 74 74 74 73 72 72 72 72 72 72 71 71 72 73 73 73 69 60 56 54 54 54 56 58 59 61 69 70 70 70 64 60 55 53 53 52 52 52 52 54 56 55 54 55 59 64 65 64 64 65 63 62 62 62 62 62 60 59 60 60 61 62 61 57 56 56 56 56 57
74 73 72 72 72 72 72 71 73 74 74 74 74 74 73 73 73 73 73 72 72 72 72 72 71 72 71 71 72 72 73 73 71 66 59 56 56 55 56 57 58 59 64 69 64 62 59 56 54 54 53 55 58 61 62 62 56 55 55 58 64 64 64 64 65 64 63 62 61 61 60 60 59 60 61 62 60 58 57 56 54 53 54 53 53
74 74 73 73 73 73 72 71 71 72 73 72 72 73 73 73 73 73 73 71 72 72 71 72 71 71 71 71 72 73 72 73 71 67 64 62 62 60 59 60 57 58 66 68 62 63 59 60 59 57 57 56 60 60 60 57 58 60 61 62 64 63 64 65 64 64 63 62 61 60 59 59 59 60 59 59 59 58 58 57 54 54 54 53 53
72 73 73 74 73 73 72 72 71 70 71 71 70 71 72 72 72 72 72 71 71 72 72 71 71 71 71 71 72 72 72 71 71 68 65 64 63 63 62 62 63 66 67 67 66 64 62 57 56 59 59 61 62 62 61 62 62 62 63 63 62 62 63 64 64 64 64 63 61 60 59 59 56 55 56 57 56 57 59 56 56 55 53 54 53
71 71 71 72 72 72 73 73 72 71 71 72 71 72 71 71 72 72 73 73 73 71 71 71 71 71 71 71 71 72 72 71 71 64 67 60 63 64 63 63 64 66 64 60 63 62 61 61 61 61 62 61 62 62 61 61 61 61 61 61 62 62 62 62 62 63 63 62 61 60 57 56 55 55 55 55 57 56 59 58 59 56 56 53 49
68 69 69 69 69 69 69 69 69 69 70 70 70 71 69 61 66 72 73 67 62 61 62 72 72 71 71 72 72 71 71 71 63 57 56 55 55 56 57 57 57 62 57 56 60 61 61 61 61 61 62 62 61 61 60 60 59 59 59 58 61 61 61 61 62 61 61 60 60 56 57 55 55 54 54 54 57 57 57 56 57 56 54 50 47
66 66 67 67 68 70 69 69 69 69 68 69 68 69 69 70 60 56 56 57 56 53 51 50 51 55 69 73 72 64 63 62 56 53 53 53 53 53 53 53 53 52 52 59 62 62 61 61 62 61 61 61 61 60 60 59 59 59 58 59 61 61 60 60 60 59 59 59 58 56 56 55 54 55 53 53 55 55 56 54 54 54 50 47 44
66 65 65 65 66 67 68 68 68 68 68 68 67 67 67 67 69 62 57 55 54 51 51 52 53 53 53 58 67 73 62 55 51 53 52 52 51 51 52 52 51 50 52 56 63 62 62 62 61 61 61 60 61 60 61 60 60 59 59 59 59 59 59 60 60 60 59 57 56 56 56 55 55 56 54 54 54 55 54 52 51 48 46 45 44
66 66 65 65 65 65 65 66 65 66 66 66 65 65 65 65 65 66 66 58 53 51 51 51 51 51 52 52 52 61 59 53 51 51 51 50 49 49 50 49 49 49 52 61 63 62 62 62 61 61 61 60 61 62 62 61 61 61 60 61 60 59 60 62 61 60 58 57 56 56 56 55 55 55 54 55 54 54 52 50 47 46 45 44 44
66 66 66 65 65 65 65 65 66 67 67 67 66 66 65 65 64 64 64 65 66 60 52 50 50 50 49 50 53 54 54 51 50 50 48 48 48 48 48 51 48 50 57 63 63 62 63 62 62 61 62 62 61 62 62 62 62 61 60 61 61 61 62 62 61 59 57 57 56 56 56 56 56 55 55 54 52 50 47 45 46 46 46 43 42
66 66 65 65 65 64 65 66 66 66 66 66 66 66 65 65 65 65 64 64 64 64 65 67 58 50 55 53 50 52 51 49 49 48 48 48 47 46 48 53 55 60 62 63 62 62 62 61 62 61 62 61 60 60 60 61 61 60 61 62 61 61 61 59 58 57 57 57 57 57 56 57 56 54 53 50 48 46 46 45 44 45 44 43 42
65 65 65 65 65 65 66 66 66 65 65 65 66 65 65 65 64 65 64 64 64 64 63 63 62 57 52 49 51 51 49 48 48 48 47 46 46 49 58 59 61 62 62 62 62 62 62 62 62 62 63 62 62 61 62 61 61 61 61 60 59 59 59 57 57 58 59 57 56 57 54 54 51 49 47 47 48 47 45 44 44 42 42 41 42
66 65 65 66 66 66 66 66 66 65 63 64 64 65 65 65 65 65 65 65 64 62 60 59 57 58 56 57 53 49 48 47 47 46 46 46 49 58 62 62 62 62 62 62 62 62 62 62 62 62 62 61 61 61 61 61 61 61 58 60 59 58 58 58 58 59 58 55 53 52 51 49 48 48 45 45 44 44 43 43 42 41 40 41 40
66 66 66 66 66 66 67 66 65 64 65 65 66 65 64 65 65 64 65 65 63 63 62 58 53 54 55 55 53 52 51 48 46 46 46 48 56 62 62 62 62 62 61 62 62 62 62 62 62 62 62 62 62 61 61 61 60 59 59 60 60 59 56 57 57 59 56 52 49 49 48 46 47 46 45 44 43 42 41 41 39 40 40 42 39
66 61 60 62 63 66 66 66 65 65 65 65 65 65 64 63 64 64 63 64 63 63 62 61 59 58 58 58 53 50 51 51 51 53 57 61 62 62 62 62 62 62 62 61 61 62 62 62 62 62 62 61 61 60 60 59 58 58 59 58 56 56 54 54 55 55 50 48 48 48 47 47 45 45 45 43 43 42 42 40 39 39 39 39 39
66 66 64 62 65 64 65 65 65 65 65 65 65 64 64 64 64 63 63 62 60 60 61 60 59 58 58 57 58 58 57 58 58 59 60 60 61 61 62 62 62 61 61 61 61 62 61 61 61 61 61 61 60 59 58 58 58 58 57 55 54 53 52 51 51 50 48 48 47 47 46 47 46 45 44 43 42 42 42 41 40 40 39 39 39
66 66 65 63 63 65 65 65 64 65 65 65 65 64 64 64 64 64 63 61 60 59 57 57 56 56 56 52 51 54 58 58 59 59 59 59 60 60 61 61 61 61 61 61 61 61 60 59 60 61 59 59 58 58 57 57 56 55 54 53 53 51 51 50 50 49 48 48 47 47 46 46 46 44 43 43 43 42 40 40 39 39 40 39 37
66 65 65 65 66 65 65 65 64 65 65 65 65 64 64 64 64 64 62 62 61 60 58 57 56 56 52 50 49 51 58 59 59 59 59 59 60 60 60 61 62 62 61 61 60 59 59 59 58 59 57 57 56 56 55 55 53 53 52 51 52 50 49 49 49 49 49 47 47 46 45 45 44 44 43 43 42 40 40 39 40 39 38 37 37
66 65 66 65 66 65 65 65 65 65 65 65 64 63 63 63 63 63 63 62 61 60 59 58 57 57 56 52 52 53 58 59 59 59 59 59 59 60 60 61 62 61 62 60 59 58 58 57 57 56 56 56 56 55 54 53 53 51 51 51 50 49 49 48 48 49 48 47 46 46 46 45 45 42 44 43 41 41 40 40 40 38 38 38 38
65 65 65 65 65 65 66 66 65 65 65 64 64 64 64 63 63 63 62 61 60 59 59 58 57 58 58 57 56 58 59 59 59 59 59 59 60 60 60 61 61 61 60 58 58 57 56 56 55 55 56 55 55 55 53 53 52 51 51 50 49 49 48 48 48 48 47 46 45 46 45 45 43 43 43 42 41 40 40 40 38 37 36 36 36
64 63 62 63 64 64 64 65 64 65 64 64 65 64 64 64 63 62 62 61 59 59 58 58 58 58 58 59 59 59 59 59 59 59 59 60 60 60 60 60 60 59 59 58 56 56 56 55 55 55 55 55 55 54 53 53 53 52 50 49 49 48 48 49 48 48 47 47 44 43 43 43 43 41 41 41 41 40 37 38 37 40 37 35 34
61 61 61 61 62 62 62 63 63 63 64 64 64 64 64 63 63 63 62 61 60 59 58 58 58 58 58 59 59 59 59 59 59 59 59 59 59 59 59 59 58 58 58 58 57 56 55 54 54 54 54 54 54 53 54 55 54 53 52 50 48 48 48 49 50 50 48 47 43 42 42 42 42 41 40 39 38 37 37 37 37 36 34 34 35
61 61 61 60 61 61 61 62 62 62 62 62 63 63 63 63 63 62 62 61 61 60 58 58 57 58 58 58 58 59 59 59 59 59 58 58 58 58 58 58 58 56 56 56 56 55 55 54 54 54 54 54 54 54 53 52 52 51 53 51 50 51 50 49 48 48 47 46 44 42 42 40 39 40 37 36 36 36 37 35 34 36 35 34 34
59 59 59 60 60 60 60 60 60 61 61 61 61 61 61 62 63 62 62 61 60 59 58 57 57 57 57 58 58 58 58 58 58 58 58 58 58 58 58 58 57 57 57 55 55 54 54 54 55 55 54 54 54 53 53 52 51 51 50 50 49 48 50 47 51 48 46 45 43 42 42 39 36 36 35 37 37 35 35 33 33 31 34 36 38
58 58 57 57 57 58 58 59 60 60 60 60 61 61 61 62 61 62 61 61 60 59 59 58 57 57 56 58 58 58 58 58 58 58 58 57 57 58 58 58 57 56 55 54 54 54 55 55 55 54 54 54 54 53 52 52 50 49 49 48 47 41 40 42 43 46 43 44 41 39 39 38 37 37 36 37 36 36 33 33 33 33 36 38 39
56 56 55 55 56 56 58 57 57 58 58 59 59 60 60 61 61 60 59 59 59 58 58 58 58 58 57 57 57 58 58 58 58 57 57 56 56 57 56 56 56 56 56 54 56 54 54 55 55 54 54 54 53 52 50 50 49 48 47 48 38 36 37 38 40 39 40 39 37 37 35 36 37 36 35 35 36 36 35 34 34 33 35 39 40
53 52 53 53 54 54 54 56 56 57 57 57 57 58 59 59 60 60 59 59 58 58 58 58 58 58 58 58 58 57 57 57 57 56 57 55 55 55 55 55 55 57 55 55 54 54 54 54 53 53 53 52 52 50 50 49 48 47 43 39 36 36 37 38 41 36 37 37 38 36 36 37 38 37 35 35 34 35 35 34 35 37 39 39 39